Location: La Brionne
(46.1728°N, 1.7849°E)
Time: 09:14:05
(UTC+00:00)

USA 215 - Pass Details

Date: 30 October 2021
Orbit: 1099 x 1109 km, 123.0° (Epoch: 20 November)

Event Time Altitude Azimuth Distance (km) Brightness Sun altitude
Exits shadow 18:16:50 17° 50° (NE) 2,495 4.7 -17.0°
Maximum altitude 18:22:07 78° 327° (NNW) 1,128 3.3 -17.9°
Drops below altitude 10° 18:28:40 10° 242° (WSW) 2,959 6.4 -19.1°
Sets 18:31:08 0° 241° (WSW) 3,917 7.2 -19.5°
